Wind_Speed
28 27 27 26 26 26 25 25 24 23 23 23 24 24 24 24 25 25 25 26 26 27 27 28 28 28 29 30 30 31 31 32 32 32 32 32 32 31 31 31 31 31 31
31 30 30 29 29 28 27 27 26 26 25 25 25 25 25 26 26 26 26 27 27 27 28 28 29 29 29 30 30 31 31 32 32 32 32 33 33 33 33 33 33 33 34
34 33 33 32 31 31 30 29 29 29 28 28 27 27 27 27 27 27 28 28 28 28 29 29 30 30 30 30 30 31 31 32 32 33 33 33 34 34 35 35 35 35 35
36 36 36 35 35 34 33 33 32 32 31 31 30 30 30 29 29 29 29 29 29 30 30 30 31 31 31 31 31 32 32 32 32 33 33 34 34 35 35 36 36 37 37
40 39 39 38 38 37 37 36 36 35 35 34 33 33 32 32 31 31 31 31 31 31 31 32 32 32 32 32 32 33 33 33 33 34 34 34 35 35 36 36 37 38 39
43 42 42 41 41 41 40 40 40 39 38 37 37 36 35 35 34 33 33 33 33 33 33 34 34 34 34 34 34 34 35 35 35 35 36 36 36 36 37 38 38 39 40
46 45 45 45 44 44 44 44 43 42 42 41 41 40 39 37 36 36 36 36 36 36 36 36 36 37 37 37 37 37 37 37 38 38 37 37 38 38 38 39 39 40 41
48 48 48 48 48 48 48 47 47 46 46 45 44 43 42 40 39 39 38 38 38 38 39 39 39 39 40 40 40 40 40 41 40 40 40 40 40 40 41 41 41 41 42
51 51 51 51 51 51 51 50 50 49 49 48 48 46 45 43 42 42 41 41 41 41 41 42 42 43 43 44 44 43 44 44 44 44 44 44 43 43 43 44 44 44 45
53 54 54 54 54 54 53 53 52 52 52 51 50 50 49 48 46 45 44 44 44 44 45 45 45 46 46 46 47 47 47 47 47 47 47 47 47 47 47 47 47 48 48
55 56 57 57 57 57 56 56 55 55 54 54 53 53 52 51 50 48 48 47 47 47 47 48 49 49 49 49 51 50 50 50 51 51 50 50 51 51 51 51 51 52 52
56 57 58 59 59 59 59 59 59 58 57 57 56 56 55 54 52 51 51 50 50 50 50 50 51 52 52 52 53 52 52 53 54 54 54 55 55 55 55 56 56 57 57
58 59 60 61 61 62 62 62 61 61 60 59 59 57 57 56 54 53 54 53 53 53 53 54 54 54 55 56 56 55 55 56 56 57 58 59 59 59 60 60 60 61 62
62 63 64 64 64 64 64 63 63 62 61 61 60 59 58 57 57 56 55 56 56 56 56 57 57 57 58 59 58 58 58 59 60 60 61 62 62 62 63 64 64 65 66
65 66 67 67 67 66 65 65 64 63 62 61 61 60 59 58 57 57 57 58 59 59 58 59 60 59 60 61 60 61 62 63 63 63 64 64 65 65 66 67 68 69 71
64 65 66 66 66 66 65 63 63 62 61 60 60 60 59 58 58 58 59 59 60 60 60 60 61 61 62 62 63 64 64 64 65 66 67 67 68 69 70 71 72 74 75
61 62 63 62 61 60 60 59 58 58 58 58 58 58 58 57 58 58 58 59 60 59 60 61 61 62 62 63 64 64 65 66 66 67 68 69 70 72 73 75 76 76 76
55 56 57 56 56 55 54 54 52 52 52 53 54 54 55 55 57 57 58 58 58 58 59 60 60 60 62 63 63 64 65 66 67 69 70 72 73 74 75 76 76 77 77
47 47 47 47 47 47 47 46 46 45 46 46 48 49 50 51 53 54 54 54 55 56 58 59 59 60 61 62 63 64 65 66 68 70 71 73 74 75 76 76 76 77 77
37 37 36 37 37 38 38 38 38 38 39 40 42 44 45 47 49 50 51 53 54 56 58 58 58 59 61 62 63 63 65 67 69 71 73 74 75 75 76 76 76 77 76
27 27 28 28 29 29 29 30 31 33 34 35 38 40 41 44 46 47 49 51 53 54 55 55 57 59 60 61 62 64 65 67 70 71 72 73 73 73 73 73 73 72 70
19 19 19 20 22 23 24 25 27 29 30 32 34 36 38 40 42 44 47 48 50 51 52 54 56 58 59 61 63 65 66 68 68 69 68 68 68 67 66 65 65 63 62
13 13 14 15 16 18 19 20 21 23 26 28 30 33 35 38 40 43 44 46 47 49 52 54 56 58 60 61 63 65 66 66 66 66 63 60 60 58 58 57 57 56 54
11 10 10 10 11 13 14 16 17 20 22 25 27 30 33 35 37 39 42 45 47 50 52 54 56 58 60 61 62 63 62 61 60 59 57 53 53 53 53 53 52 51 50
11 10 9 9 10 11 12 15 17 19 21 23 25 28 31 34 37 40 42 45 48 51 53 55 57 58 59 60 59 58 56 54 51 51 50 48 47 46 47 48 49 48 46
11 10 9 9 10 11 12 13 15 18 20 23 26 29 32 35 38 41 44 47 49 51 53 55 55 56 56 55 54 52 50 47 45 44 44 43 43 43 40 42 44 45 43
Wind_Direction
277 278 279 280 281 282 283 284 284 285 286 287 288 289 290 290 290 291 292 292 291 291 291 291 291 291 291 291 290 290 289 289 288 286 285 283 281 280 279 277 275 273 272
276 277 277 278 279 280 281 281 282 283 284 285 287 288 288 289 290 291 292 292 291 291 291 291 291 291 291 291 291 290 290 289 288 286 285 283 281 280 279 277 276 274 272
274 275 276 277 277 277 278 279 280 281 283 284 285 286 288 289 290 291 292 291 291 291 291 291 291 291 291 291 291 290 290 289 288 287 285 284 282 280 279 277 276 275 273
273 274 274 275 275 276 276 277 278 279 280 282 283 285 286 287 289 290 291 291 291 291 290 290 290 291 291 290 290 289 289 288 288 287 285 284 283 282 280 279 278 276 274
272 272 272 273 274 274 275 275 276 277 278 279 281 283 284 286 287 288 289 290 290 290 290 289 290 289 290 289 289 288 288 287 287 286 285 284 283 282 281 280 279 278 277
271 271 272 272 272 273 274 274 274 275 276 277 279 280 282 284 285 287 288 288 289 289 289 289 288 288 288 288 287 287 287 287 286 285 284 283 282 281 281 281 280 279 278
270 271 271 271 271 271 271 272 272 274 274 275 276 278 279 281 283 284 285 286 287 287 287 287 287 286 286 286 286 286 286 286 285 284 284 283 282 282 281 281 280 280 279
270 270 270 269 269 269 270 270 271 272 273 274 275 276 277 279 280 281 282 283 284 285 285 286 286 285 284 284 285 284 284 284 284 283 282 282 282 282 281 281 281 280 279
269 269 269 269 269 269 269 269 270 271 272 273 274 275 276 277 278 279 280 281 282 283 284 284 284 284 283 283 283 283 284 283 283 283 282 281 281 281 281 281 281 280 279
269 269 269 268 267 268 268 268 268 269 270 271 273 274 276 276 277 277 278 280 281 282 282 283 284 284 283 283 282 283 283 283 282 282 282 281 281 281 281 282 281 280 280
268 268 267 267 266 266 266 266 266 267 268 270 271 272 273 275 276 277 277 278 280 281 281 283 283 283 283 283 282 282 283 281 280 280 281 281 281 281 281 281 281 280 280
268 267 267 266 265 265 264 264 264 265 266 267 269 271 272 273 275 276 276 277 278 280 281 283 282 282 282 283 282 282 282 281 280 280 280 281 281 281 281 281 281 281 280
268 267 266 265 265 264 264 264 264 264 265 266 267 269 271 272 273 274 275 277 277 279 280 281 281 282 282 282 282 281 281 282 282 282 281 282 282 282 282 282 282 281 281
270 268 266 265 264 264 263 263 264 264 264 265 266 267 269 271 272 273 274 276 277 278 279 280 280 281 282 283 283 282 282 282 282 284 284 283 284 283 283 283 283 282 282
272 270 268 266 264 263 263 263 263 263 263 264 265 266 267 269 270 271 273 275 277 278 279 280 280 280 281 282 283 283 283 284 284 285 286 286 285 285 285 284 284 284 283
274 272 269 267 265 264 262 262 261 261 262 262 263 265 266 267 269 272 273 275 277 279 279 279 280 281 282 283 283 283 285 285 285 286 287 287 287 287 286 286 285 285 284
275 273 270 268 267 265 264 262 262 261 261 261 262 263 265 267 268 271 273 275 276 278 279 280 281 282 282 283 284 285 286 287 287 288 288 288 288 288 288 287 287 286 284
277 274 271 269 267 266 264 263 261 260 260 260 261 262 264 265 267 270 272 273 276 278 279 280 282 283 283 284 285 287 289 289 290 290 290 290 290 289 289 288 287 287 286
278 275 272 269 267 265 265 262 259 258 258 259 260 261 263 264 267 269 272 274 276 277 279 281 282 283 285 286 288 289 290 291 291 291 291 291 291 291 290 289 289 288 287
281 276 272 269 266 264 262 260 258 257 257 258 260 262 263 266 268 271 273 275 277 279 281 282 283 285 287 288 290 291 292 293 293 293 293 293 293 292 291 291 290 289 287
285 277 271 268 265 263 260 258 256 257 257 259 261 263 265 268 270 272 274 276 279 281 282 284 286 288 290 291 293 294 294 295 295 295 295 295 294 293 293 293 292 291 289
293 285 276 271 268 263 260 259 258 258 260 261 264 265 267 269 272 275 277 279 281 284 286 288 290 292 293 295 296 296 296 296 296 296 296 296 296 296 295 294 294 294 293
302 288 285 278 271 267 265 262 260 261 264 265 266 268 270 272 275 278 281 283 287 289 290 292 293 294 295 296 297 297 297 298 297 297 297 298 297 298 298 298 297 298 297
323 313 300 285 276 269 266 265 267 268 269 269 271 274 277 280 283 285 288 290 291 292 293 295 296 297 298 298 298 298 298 299 299 299 300 299 298 300 300 300 300 301 301
327 320 309 298 290 282 276 274 275 276 278 280 283 284 287 289 290 292 293 295 295 296 297 298 299 300 300 300 300 300 300 301 301 301 301 302 302 303 303 303 304 305 305
332 327 317 314 309 302 296 293 292 291 291 291 292 293 294 295 297 298 299 299 299 300 300 301 301 301 302 302 302 302 303 303 303 302 303 305 305 305 305 305 306 307 308
Height
5838 5838 5838 5837 5836 5836 5835 5834 5833 5832 5832 5831 5829 5828 5827 5826 5825 5824 5822 5821 5819 5818 5816 5815 5813 5811 5810 5808 5807 5805 5803 5802 5801 5799 5798 5797 5797 5796 5796 5795 5795 5795 5795
5833 5833 5832 5832 5831 5830 5830 5829 5828 5827 5826 5825 5824 5823 5822 5820 5819 5818 5816 5815 5814 5812 5810 5809 5807 5805 5804 5802 5800 5799 5797 5795 5794 5793 5792 5790 5790 5789 5788 5788 5787 5787 5787
5827 5827 5826 5826 5825 5824 5824 5823 5822 5821 5820 5819 5818 5817 5816 5815 5813 5811 5810 5809 5807 5806 5804 5802 5801 5799 5797 5795 5794 5792 5790 5789 5787 5786 5784 5783 5782 5781 5780 5780 5780 5779 5779
5820 5820 5820 5819 5818 5818 5817 5817 5816 5815 5814 5813 5812 5811 5809 5808 5807 5805 5804 5802 5801 5799 5797 5795 5794 5792 5790 5788 5787 5785 5783 5782 5780 5778 5777 5776 5774 5773 5772 5772 5771 5771 5770
5813 5813 5812 5812 5811 5811 5810 5810 5809 5808 5807 5806 5805 5804 5803 5801 5800 5798 5797 5795 5793 5792 5790 5788 5786 5785 5783 5781 5780 5778 5776 5774 5773 5771 5769 5768 5766 5765 5764 5763 5762 5762 5761
5805 5804 5804 5804 5803 5803 5802 5801 5800 5800 5799 5798 5797 5796 5795 5794 5792 5791 5789 5787 5786 5784 5782 5781 5779 5777 5775 5774 5772 5770 5768 5767 5765 5763 5762 5760 5758 5757 5756 5754 5753 5753 5752
5796 5795 5795 5795 5794 5794 5793 5792 5792 5791 5790 5789 5788 5788 5787 5786 5785 5783 5781 5779 5778 5776 5774 5772 5771 5769 5767 5765 5763 5762 5760 5758 5756 5755 5753 5751 5750 5748 5746 5745 5744 5743 5742
5786 5785 5785 5785 5784 5783 5783 5782 5782 5781 5781 5780 5779 5778 5778 5777 5776 5774 5772 5771 5769 5767 5765 5764 5762 5760 5758 5756 5754 5752 5750 5748 5746 5745 5743 5741 5740 5738 5736 5735 5734 5732 5731
5775 5774 5774 5773 5773 5772 5772 5771 5771 5770 5770 5769 5768 5768 5768 5768 5766 5765 5763 5761 5760 5758 5756 5754 5752 5750 5748 5746 5744 5742 5740 5738 5736 5734 5732 5730 5729 5727 5726 5724 5723 5721 5720
5764 5763 5762 5761 5761 5760 5760 5760 5759 5759 5758 5758 5757 5756 5757 5756 5755 5755 5753 5751 5749 5747 5746 5744 5741 5739 5737 5735 5733 5731 5729 5727 5725 5723 5721 5719 5717 5715 5714 5712 5710 5709 5707
5752 5751 5750 5749 5748 5748 5748 5747 5747 5747 5746 5746 5746 5745 5744 5744 5743 5742 5742 5741 5738 5736 5734 5732 5730 5728 5726 5723 5721 5719 5717 5715 5712 5710 5708 5706 5704 5702 5700 5698 5697 5695 5693
5739 5737 5736 5735 5734 5734 5734 5734 5734 5734 5734 5733 5733 5733 5733 5732 5732 5731 5729 5728 5727 5725 5722 5720 5718 5716 5713 5710 5708 5706 5704 5701 5699 5696 5694 5692 5689 5687 5686 5683 5681 5679 5678
5725 5723 5721 5720 5719 5719 5719 5719 5719 5720 5720 5720 5721 5721 5721 5720 5720 5719 5717 5716 5714 5712 5710 5708 5705 5702 5699 5697 5694 5692 5690 5687 5684 5682 5679 5676 5674 5671 5669 5667 5665 5662 5660
5708 5706 5704 5703 5703 5703 5703 5704 5704 5706 5706 5707 5707 5708 5708 5707 5707 5706 5705 5703 5701 5700 5697 5695 5692 5688 5686 5683 5680 5677 5675 5672 5669 5665 5662 5659 5657 5654 5651 5649 5646 5643 5641
5690 5687 5686 5685 5685 5686 5687 5688 5689 5690 5692 5693 5694 5694 5695 5695 5694 5693 5692 5690 5688 5686 5684 5681 5678 5675 5671 5668 5665 5662 5659 5656 5652 5648 5645 5642 5639 5636 5632 5629 5626 5623 5620
5670 5668 5666 5665 5666 5667 5669 5670 5672 5674 5676 5678 5680 5681 5682 5682 5681 5680 5678 5677 5675 5672 5670 5667 5664 5661 5657 5653 5650 5647 5643 5639 5635 5631 5627 5623 5619 5616 5612 5608 5604 5600 5596
5651 5648 5647 5646 5647 5649 5651 5654 5656 5659 5662 5664 5666 5667 5668 5669 5668 5667 5665 5663 5662 5659 5656 5653 5650 5646 5642 5638 5634 5630 5626 5622 5617 5612 5607 5603 5599 5595 5590 5585 5581 5576 5571
5634 5631 5629 5629 5631 5633 5635 5638 5641 5644 5647 5650 5652 5653 5655 5655 5655 5653 5652 5650 5648 5645 5642 5639 5635 5631 5627 5622 5618 5614 5608 5603 5598 5593 5588 5583 5578 5572 5567 5561 5556 5551 5546
5619 5617 5615 5616 5617 5619 5621 5624 5627 5630 5633 5636 5639 5640 5642 5642 5641 5640 5639 5637 5635 5632 5628 5625 5621 5616 5612 5607 5602 5597 5591 5585 5579 5573 5567 5561 5555 5549 5543 5537 5531 5525 5520
5608 5606 5605 5605 5607 5609 5611 5613 5616 5619 5622 5625 5627 5629 5629 5630 5629 5629 5627 5625 5622 5619 5615 5611 5606 5601 5596 5591 5585 5580 5574 5567 5560 5553 5546 5539 5532 5526 5519 5513 5506 5500 5494
5600 5598 5598 5598 5599 5601 5603 5605 5607 5610 5613 5615 5617 5618 5618 5619 5618 5616 5615 5612 5609 5605 5601 5597 5592 5586 5580 5575 5569 5562 5556 5548 5540 5532 5526 5517 5510 5503 5495 5488 5481 5475 5469
5596 5594 5593 5593 5594 5595 5597 5599 5601 5603 5605 5607 5608 5609 5609 5608 5607 5605 5603 5600 5596 5592 5588 5583 5577 5571 5565 5558 5552 5545 5538 5530 5522 5513 5507 5497 5488 5482 5474 5466 5459 5453 5447
5594 5592 5591 5590 5591 5592 5593 5594 5596 5597 5599 5600 5600 5600 5600 5599 5597 5595 5591 5588 5584 5579 5575 5569 5563 5556 5550 5543 5536 5527 5519 5511 5502 5494 5488 5481 5470 5463 5455 5447 5440 5434 5429
5594 5591 5590 5589 5589 5589 5590 5591 5592 5593 5593 5593 5593 5593 5591 5589 5587 5584 5580 5576 5571 5566 5561 5555 5549 5541 5533 5526 5518 5510 5502 5494 5484 5475 5470 5466 5456 5448 5440 5431 5424 5418 5413
5594 5591 5590 5589 5589 5588 5588 5588 5588 5588 5588 5587 5586 5585 5583 5580 5577 5573 5569 5563 5558 5552 5546 5539 5532 5525 5517 5510 5502 5494 5486 5479 5471 5461 5455 5451 5443 5436 5428 5418 5410 5404 5398
5593 5591 5590 5589 5588 5587 5586 5585 5585 5584 5583 5581 5579 5577 5574 5570 5566 5561 5556 5550 5544 5538 5531 5524 5517 5509 5502 5494 5486 5479 5472 5464 5458 5451 5444 5439 5431 5424 5420 5410 5400 5393 5386